Regional Weather Roundup
Issued by NWS

Home | Current Version | Previous Version | Graphics & Text | Print | Product List | Glossary On
Versions: 1 2 3 4 5 6 7 8 9 10 11 12 13 14 15 16 17 18 19 20 21 22 23 24 25 26 27 28 29 30 31 32 33 34 35 36 37 38 39 40 41 42 43 44 45 46 47 48 49 50
000
ASUS43 KLSX 272059
RWRMO

WEATHER SUMMARY FOR MISSOURI
NATIONAL WEATHER SERVICE SPRINGFIELD MO
400 PM CDT MON APR 27 2015

NOTE: "FAIR" INDICATES FEW OR NO CLOUDS BELOW 12,000 FEET WITH NO
       SIGNIFICANT WEATHER AND/OR OBSTRUCTIONS TO VISIBILITY.
       CURRENT SKY AND/OR WEATHER CONDITIONS ARE NOT AVAILABLE FOR
       CHILLICOTHE AND FARMINGTON.

MOZ001>031-035>038-043-044-053-054-272200-
...NORTHERN AND WESTERN MISSOURI...

CITY           SKY/WX    TMP DP  RH WIND       PRES   REMARKS
KANSAS CTY INT PTSUNNY   64  36  35 E10       30.08F
KANSAS C DTWN  MOSUNNY   66  33  29 NE14G23   30.07F
LEE`S SUMMIT   MOSUNNY   65  32  29 NE15G26   30.07F
ST JOSEPH      MOSUNNY   68  35  29 NE12      30.09F
CHILLICOTHE      N/A     68  34  28 NE7G20    30.09F
KIRKSVILLE     SUNNY     66  39  37 N13G24    30.09F

$$
MOZ066>068-077>081-088>096-101>105-272200-
...SOUTHWEST MISSOURI...

CITY           SKY/WX    TMP DP  RH WIND       PRES   REMARKS
SPRINGFIELD    PTSUNNY   64  33  31 NE22      29.98F
JOPLIN         CLOUDY    63  36  36 E17G28    29.97F

$$
MOZ032>034-039>042-045>050-055>058-069>072-272200-
...CENTRAL MISSOURI...

CITY           SKY/WX    TMP DP  RH WIND       PRES   REMARKS
COLUMBIA       MOSUNNY   67  37  33 N15       30.06F
JEFFERSON CITY SUNNY     67  32  27 N14G21    30.05F
SEDALIA        SUNNY     68  36  30 NE12      30.07F
OSAGE BEACH    SUNNY     66  36  32 NE14G24   30.04S

$$
MOZ051-052-059>065-272200-
...EAST CENTRAL MISSOURI...

CITY           SKY/WX    TMP DP  RH WIND       PRES   REMARKS
ST LOUIS INTL  MOSUNNY   67  35  30 NE18      30.05F
SPIRIT OF STL  PTSUNNY   66  35  31 N14G23    30.04F
ST CHARLES     SUNNY     66  38  35 NE12G22   30.04F

$$
MOZ072>076-082>087-097>100-106>115-272200-
...SOUTH CENTRAL AND SOUTHEAST MISSOURI...

CITY           SKY/WX    TMP DP  RH WIND       PRES   REMARKS
CAPE GIRARDEAU SUNNY     65  38  36 NE12G22   30.00F
FARMINGTON     SUNNY     64  39  39 N12G22    30.07F
POPLAR BLUFF   MOSUNNY   66  38  35 NE14G23   29.99F
WEST PLAINS    PTSUNNY   65  32  29 E17       29.99F

$$



USA.gov is the U.S. government's official web portal to all federal, state and local government web resources and services.